When you browse on this site, cookies collect data to enhance your experience and personalize the content and advertising you see.
Visit our Privacy Policy to learn more. By continuing to use the site, you agree to this use of cookies and data.
  • In Sweden
  • List of Countries
  • For 7 days
  • Water Temperature
  • Weather Map
  • Weather Widgets
  • user-avatar
    Login

    Hourly Weather Tokyo

    Today, 25 August, Sunday

    Time Temperature Precipitation Wind Pressure Humidity
    00:00 +30°C° 0.2 mm 2 mps 754 mmHg 61%
    01:00 +30°C° 0.5 mm 2 mps 754 mmHg 59%
    02:00 +29°C° 0.5 mm 3 mps 754 mmHg 57%
    03:00 +29°C° 0 mm 4 mps 754 mmHg 56%
    04:00 +29°C° 0.2 mm 4 mps 755 mmHg 57%
    05:00 +29°C° 0.2 mm 4 mps 755 mmHg 57%
    06:00 +28°C° 0.2 mm 3 mps 755 mmHg 57%
    07:00 +29°C° 0 mm 3 mps 755 mmHg 54%
    08:00 +30°C° 0 mm 3 mps 755 mmHg 50%
    09:00 +30°C° 0 mm 2 mps 755 mmHg 47%
    10:00 +31°C° 0 mm 2 mps 755 mmHg 44%
    11:00 +34°C° 0 mm 2 mps 755 mmHg 41%
    12:00 +35°C° 0 mm 2 mps 755 mmHg 38%
    13:00 +35°C° 0 mm 3 mps 754 mmHg 38%
    14:00 +35°C° 0 mm 4 mps 754 mmHg 39%
    15:00 +35°C° 0 mm 5 mps 754 mmHg 40%
    16:00 +34°C° 0.1 mm 5 mps 754 mmHg 43%
    17:00 +33°C° 0.1 mm 5 mps 754 mmHg 46%
    18:00 +33°C° 0.1 mm 5 mps 755 mmHg 49%
    19:00 +32°C° 0.1 mm 4 mps 755 mmHg 50%
    20:00 +31°C° 0.1 mm 3 mps 755 mmHg 52%
    21:00 +31°C° 0.1 mm 1 mps 755 mmHg 53%
    22:00 +30°C° 0 mm 2 mps 755 mmHg 54%
    23:00 +30°C° 0 mm 3 mps 755 mmHg 56%

    Tomorrow, 26 August, Monday

    Time Temperature Precipitation Wind Pressure Humidity
    00:00 +30°C° 0 mm 4 mps 755 mmHg 57%
    01:00 +29°C° 0 mm 4 mps 755 mmHg 57%
    02:00 +29°C° 0 mm 4 mps 755 mmHg 57%
    03:00 +28°C° 0 mm 5 mps 755 mmHg 57%
    04:00 +28°C° 0 mm 5 mps 755 mmHg 57%
    05:00 +28°C° 0 mm 5 mps 756 mmHg 57%
    06:00 +28°C° 0 mm 5 mps 756 mmHg 57%
    07:00 +29°C° 0 mm 4 mps 756 mmHg 54%
    08:00 +29°C° 0 mm 4 mps 757 mmHg 51%
    09:00 +30°C° 0 mm 4 mps 757 mmHg 48%
    10:00 +32°C° 0 mm 4 mps 757 mmHg 46%
    11:00 +32°C° 0 mm 4 mps 756 mmHg 44%
    12:00 +33°C° 0 mm 3 mps 756 mmHg 42%
    13:00 +33°C° 0 mm 3 mps 756 mmHg 41%
    14:00 +33°C° 0 mm 3 mps 756 mmHg 40%
    15:00 +34°C° 0 mm 3 mps 756 mmHg 38%
    16:00 +33°C° 0 mm 4 mps 756 mmHg 41%
    17:00 +32°C° 0 mm 5 mps 756 mmHg 43%
    18:00 +32°C° 0 mm 5 mps 757 mmHg 46%
    19:00 +30°C° 0 mm 5 mps 757 mmHg 49%
    20:00 +29°C° 0 mm 4 mps 758 mmHg 53%
    21:00 +28°C° 0 mm 3 mps 759 mmHg 56%
    22:00 +28°C° 0 mm 3 mps 759 mmHg 58%
    23:00 +28°C° 0 mm 3 mps 759 mmHg 60%

    Day after tomorrow, 27 August, Tuesday

    Time Temperature Precipitation Wind Pressure Humidity
    00:00 +27°C° 0 mm 3 mps 759 mmHg 62%
    01:00 +27°C° 0 mm 3 mps 759 mmHg 62%
    02:00 +27°C° 0 mm 3 mps 758 mmHg 63%
    03:00 +26°C° 0 mm 3 mps 758 mmHg 64%
    04:00 +26°C° 0 mm 3 mps 759 mmHg 65%
    05:00 +26°C° 0 mm 3 mps 759 mmHg 65%
    06:00 +26°C° 0 mm 3 mps 760 mmHg 66%
    07:00 +27°C° 0 mm 3 mps 760 mmHg 61%
    08:00 +28°C° 0 mm 2 mps 760 mmHg 57%
    09:00 +29°C° 0 mm 2 mps 760 mmHg 53%
    10:00 +30°C° 0 mm 2 mps 759 mmHg 48%
    11:00 +31°C° 0 mm 2 mps 759 mmHg 43%
    12:00 +32°C° 0 mm 2 mps 759 mmHg 39%
    13:00 +33°C° 0 mm 3 mps 758 mmHg 39%
    14:00 +34°C° 0 mm 3 mps 758 mmHg 39%
    15:00 +34°C° 0 mm 4 mps 758 mmHg 38%
    16:00 +33°C° 0.1 mm 4 mps 758 mmHg 44%
    17:00 +32°C° 0.1 mm 5 mps 758 mmHg 50%
    18:00 +30°C° 0.1 mm 5 mps 758 mmHg 56%
    19:00 +30°C° 0.2 mm 5 mps 759 mmHg 58%
    20:00 +29°C° 0.2 mm 4 mps 759 mmHg 61%
    21:00 +29°C° 0.2 mm 4 mps 759 mmHg 63%
    22:00 +29°C° 0.4 mm 4 mps 759 mmHg 64%
    23:00 +28°C° 0.4 mm 3 mps 759 mmHg 65%

    28 August, Wednesday

    Time Temperature Precipitation Wind Pressure Humidity
    00:00 +28°C° 0.4 mm 3 mps 759 mmHg 65%
    01:00 +28°C° 0.4 mm 3 mps 758 mmHg 65%
    02:00 +28°C° 0.4 mm 3 mps 758 mmHg 65%
    03:00 +28°C° 0.4 mm 3 mps 758 mmHg 65%
    04:00 +28°C° 0.2 mm 3 mps 757 mmHg 66%
    05:00 +27°C° 0.2 mm 2 mps 757 mmHg 67%
    06:00 +27°C° 0.2 mm 2 mps 757 mmHg 67%
    07:00 +27°C° 1.4 mm 3 mps 757 mmHg 71%
    08:00 +26°C° 1.4 mm 3 mps 757 mmHg 75%
    09:00 +26°C° 1.4 mm 3 mps 757 mmHg 79%
    10:00 +26°C° 0.4 mm 5 mps 756 mmHg 77%
    11:00 +27°C° 0.4 mm 6 mps 756 mmHg 76%
    12:00 +27°C° 0.4 mm 8 mps 756 mmHg 75%
    13:00 +27°C° 0.5 mm 8 mps 755 mmHg 74%
    14:00 +28°C° 0.5 mm 9 mps 754 mmHg 73%
    15:00 +28°C° 0.5 mm 9 mps 754 mmHg 72%
    16:00 +28°C° 0.1 mm 9 mps 754 mmHg 68%
    17:00 +29°C° 0.1 mm 9 mps 753 mmHg 64%
    18:00 +29°C° 0.1 mm 9 mps 753 mmHg 60%
    19:00 +29°C° 0 mm 8 mps 753 mmHg 61%
    20:00 +29°C° 0 mm 8 mps 753 mmHg 61%
    21:00 +29°C° 0 mm 7 mps 754 mmHg 62%
    22:00 +29°C° 0 mm 7 mps 753 mmHg 63%
    23:00 +29°C° 0 mm 8 mps 753 mmHg 64%

    29 August, Thursday

    Time Temperature Precipitation Wind Pressure Humidity
    00:00 +29°C° 0 mm 8 mps 753 mmHg 66%
    01:00 +29°C° 0 mm 8 mps 752 mmHg 66%
    02:00 +29°C° 0 mm 8 mps 752 mmHg 66%
    03:00 +29°C° 0 mm 8 mps 752 mmHg 66%
    04:00 +29°C° 0 mm 8 mps 752 mmHg 66%
    05:00 +29°C° 0 mm 8 mps 752 mmHg 65%
    06:00 +29°C° 0 mm 8 mps 752 mmHg 65%
    07:00 +31°C° 0 mm 8 mps 752 mmHg 64%
    08:00 +31°C° 0 mm 8 mps 752 mmHg 64%
    09:00 +31°C° 0 mm 8 mps 752 mmHg 63%
    10:00 +33°C° 0 mm 8 mps 752 mmHg 58%
    11:00 +34°C° 0 mm 9 mps 752 mmHg 53%
    12:00 +37°C° 0 mm 9 mps 752 mmHg 48%
    13:00 +35°C° 0 mm 9 mps 752 mmHg 49%
    14:00 +35°C° 0 mm 8 mps 752 mmHg 50%
    15:00 +35°C° 0 mm 8 mps 752 mmHg 51%
    16:00 +35°C° 0 mm 7 mps 752 mmHg 52%
    17:00 +34°C° 0 mm 6 mps 752 mmHg 52%
    18:00 +34°C° 0 mm 6 mps 752 mmHg 53%
    19:00 +33°C° 0 mm 5 mps 752 mmHg 55%
    20:00 +33°C° 0 mm 4 mps 753 mmHg 57%
    21:00 +32°C° 0 mm 4 mps 753 mmHg 59%
    22:00 +32°C° 0 mm 4 mps 753 mmHg 61%
    23:00 +32°C° 0 mm 4 mps 753 mmHg 63%

    30 August, Friday

    Time Temperature Precipitation Wind Pressure Humidity
    00:00 +30°C° 0 mm 4 mps 753 mmHg 65%
    01:00 +30°C° 0 mm 3 mps 753 mmHg 64%
    02:00 +30°C° 0 mm 3 mps 754 mmHg 64%
    03:00 +29°C° 0 mm 2 mps 754 mmHg 63%
    04:00 +29°C° 0 mm 2 mps 754 mmHg 63%
    05:00 +29°C° 0 mm 2 mps 754 mmHg 63%
    06:00 +29°C° 0 mm 1 mps 755 mmHg 63%
    07:00 +30°C° 0 mm 1 mps 755 mmHg 60%
    08:00 +31°C° 0 mm 1 mps 755 mmHg 57%
    09:00 +32°C° 0 mm 1 mps 755 mmHg 54%
    10:00 +34°C° 0 mm 2 mps 754 mmHg 51%
    11:00 +35°C° 0 mm 2 mps 754 mmHg 48%
    12:00 +36°C° 0 mm 3 mps 754 mmHg 45%
    13:00 +36°C° 0 mm 4 mps 754 mmHg 47%
    14:00 +36°C° 0 mm 5 mps 754 mmHg 48%
    15:00 +36°C° 0 mm 6 mps 754 mmHg 50%
    16:00 +35°C° 0.6 mm 6 mps 754 mmHg 55%
    17:00 +33°C° 0.6 mm 6 mps 755 mmHg 60%
    18:00 +32°C° 0.6 mm 6 mps 755 mmHg 65%
    19:00 +32°C° 0.6 mm 4 mps 756 mmHg 64%
    20:00 +30°C° 0.6 mm 3 mps 756 mmHg 63%
    21:00 +30°C° 0.6 mm 1 mps 756 mmHg 62%
    22:00 +30°C° 0 mm 1 mps 756 mmHg 62%
    23:00 +30°C° 0 mm 1 mps 756 mmHg 62%
    Show more